Location: Prague
(50.0830°N, 14.4670°E)
Time: 09:05:04
(UTC+01:00)

STARLINK-1617 - Pass Details

Date: 23 January 2021
Orbit: 545 x 549 km, 53.1° (Epoch: 25 February)

Event Time Altitude Azimuth Distance (km) Brightness Sun altitude
Exits shadow 05:37:56 62° 281° (W) 617 3.5 -20.5°
Maximum altitude 05:38:31 76° 342° (NNW) 568 3.5 -20.4°
Drops below altitude 10° 05:42:40 10° 69° (ENE) 1,822 7.2 -19.7°
Sets 05:44:54 0° 71° (ENE) 2,717 8.3 -19.3°
